| time (UTC) | temp C | wind direction | speed KPH | gust KPH | rain 1hr cm | rain 24hr cm | rain mn cm | humidity % | barometer mb |
| 20260505041527 | 23 | 123 | 0.0 | 0.0 | 0.00 | 0.00 | 0.00 | 100 | 1019.5 |
| 20260505040024 | 23 | 123 | 0.0 | 0.0 | 0.00 | 0.00 | 0.00 | 100 | 1019.4 |
| 20260505034527 | 23 | 123 | 0.0 | 1.6 | 0.00 | 0.00 | 0.00 | 100 | 1019.5 |
| 20260505033024 | 23 | 123 | 0.0 | 0.0 | 0.00 | 0.00 | 0.00 | 100 | 1019.5 |
| 20260505031522 | 23 | 123 | 0.0 | 0.0 | 0.00 | 0.00 | 0.00 | 100 | 1019.6 |
| 20260505030037 | 23 | 123 | 0.0 | 0.0 | 0.00 | 0.00 | 0.00 | 100 | 1019.6 |
| 20260505024522 | 23 | 123 | 0.0 | 0.0 | 0.00 | 0.00 | 0.00 | 100 | 1019.5 |
| 20260505023022 | 23 | 123 | 0.0 | 0.0 | 0.00 | 0.00 | 0.00 | 100 | 1019.4 |
| 20260505021523 | 23 | 123 | 0.0 | 0.0 | 0.00 | 0.00 | 0.00 | 100 | 1019.3 |
| 20260505020021 | 24 | 123 | 0.0 | 0.0 | 0.00 | 0.00 | 0.00 | 100 | 1019.0 |
| 20260505014523 | 24 | 123 | 0.0 | 0.0 | 0.00 | 0.00 | 0.00 | 100 | 1018.8 |
| 20260505013020 | 24 | 123 | 0.0 | 0.0 | 0.00 | 0.00 | 0.00 | 100 | 1018.6 |
| 20260505011518 | 25 | 123 | 0.0 | 0.0 | 0.00 | 0.00 | 0.00 | 99 | 1018.5 |
| 20260505010017 | 25 | 123 | 0.0 | 0.0 | 0.00 | 0.00 | 0.00 | 98 | 1018.1 |
| 20260505004530 | 25 | 123 | 0.0 | 0.0 | 0.00 | 0.00 | 0.00 | 97 | 1017.8 |
| 20260505003016 | 25 | 123 | 0.0 | 1.6 | 0.00 | 0.00 | 0.00 | 97 | 1017.5 |
| 20260505001516 | 26 | 123 | 0.0 | 1.6 | 0.00 | 0.00 | 0.00 | 96 | 1017.2 |
| 20260505000017 | 26 | 123 | 0.0 | 1.6 | 0.00 | 0.00 | 0.00 | 95 | 1017.0 |
| 20260504234518 | 26 | 123 | 0.0 | 1.6 | 0.00 | 0.00 | 0.00 | 94 | 1016.5 |
| 20260504233020 | 26 | 123 | 0.0 | 0.0 | 0.00 | 0.00 | 0.00 | 93 | 1016.2 |
| 20260504211532 | 33 | 123 | 0.0 | 8.0 | 0.00 | 0.00 | 0.00 | 72 | 1017.2 |
| 20260504210025 | 36 | 123 | 1.6 | 8.0 | 0.00 | 0.00 | 0.00 | 67 | 1017.2 |
| 20260504204524 | 32 | 123 | 1.6 | 4.8 | 0.00 | 0.00 | 0.00 | 75 | 1017.3 |
| 20260504203023 | 31 | 123 | 0.0 | 4.8 | 0.00 | 0.00 | 0.00 | 75 | 1017.3 |
| 20260504201523 | 31 | 123 | 1.6 | 8.0 | 0.00 | 0.00 | 0.00 | 78 | 1017.2 |
| 20260504200026 | 32 | 123 | 0.0 | 8.0 | 0.00 | 0.00 | 0.00 | 75 | 1017.3 |
| 20260504194524 | 33 | 123 | 1.6 | 6.4 | 0.00 | 0.00 | 0.00 | 72 | 1017.1 |
| 20260504193020 | 34 | 123 | 1.6 | 9.7 | 0.00 | 0.00 | 0.00 | 71 | 1017.5 |
| 20260504191518 | 36 | 123 | 1.6 | 11.3 | 0.00 | 0.00 | 0.00 | 68 | 1017.4 |
| 20260504190118 | 37 | 123 | 1.6 | 16.1 | 0.00 | 0.00 | 0.00 | 65 | 1017.4 |
| 20260504184532 | 37 | 123 | 1.6 | 11.3 | 0.00 | 0.00 | 0.00 | 65 | 1017.6 |
| 20260504183014 | 38 | 123 | 3.2 | 8.0 | 0.00 | 0.00 | 0.00 | 59 | 1017.5 |
| 20260504181509 | 38 | 123 | 0.0 | 8.0 | 0.00 | 0.00 | 0.00 | 60 | 1017.7 |
| 20260504180008 | 36 | 123 | 3.2 | 8.0 | 0.00 | 0.00 | 0.00 | 64 | 1017.7 |
| 20260504174506 | 35 | 123 | 3.2 | 12.9 | 0.00 | 0.00 | 0.00 | 69 | 1017.9 |
| 20260504173012 | 36 | 123 | 0.0 | 8.0 | 0.00 | 0.00 | 0.00 | 66 | 1018.2 |
| 20260504171503 | 32 | 123 | 1.6 | 11.3 | 0.00 | 0.00 | 0.00 | 73 | 1018.2 |
| 20260504081531 | 21 | 123 | 0.0 | 3.2 | 0.00 | 0.00 | 0.00 | 100 | 1018.5 |